Date,Time,Wetness (Wet Dry or Ice),Wind Speed (m/s),Temperature (C),Humidity (%),Pressure (mb),Radiation (W/m^2)
2023-12-06,02:35:00,DRY,0.90,11.20,10.0,773.50,0.0
2023-12-06,02:40:00,DRY,1.80,11.80,8.3,774.00,0.0
2023-12-06,02:45:00,DRY,2.10,11.70,8.5,773.00,0.0
2023-12-06,02:50:00,DRY,1.53,11.37,8.0,773.33,0.0
2023-12-06,02:55:00,DRY,1.20,11.45,7.5,773.00,0.0
2023-12-06,03:00:00,DRY,0.90,11.30,8.0,773.33,0.0
2023-12-06,03:05:00,DRY,1.55,11.40,7.0,773.00,0.0
2023-12-06,03:10:00,DRY,1.37,11.47,7.3,773.00,0.0
2023-12-06,03:15:00,DRY,1.30,11.25,8.5,773.00,0.0
2023-12-06,03:20:00,DRY,0.87,10.97,8.0,773.00,0.0
2023-12-06,03:25:00,DRY,1.35,11.00,7.5,773.00,0.0
2023-12-06,03:30:00,DRY,1.17,11.33,6.3,773.00,0.0
2023-12-06,03:35:00,DRY,0.45,11.30,7.5,773.00,0.0
2023-12-06,03:40:00,DRY,0.93,10.87,8.3,773.00,0.0
2023-12-06,03:45:00,DRY,2.75,11.05,8.0,773.00,0.0
2023-12-06,03:50:00,DRY,2.67,10.77,11.0,773.00,0.0
2023-12-06,03:55:00,DRY,2.35,10.50,10.5,773.00,0.0
2023-12-06,04:00:00,DRY,2.17,10.40,11.3,773.00,0.0
2023-12-06,04:05:00,DRY,1.85,10.20,11.5,773.00,0.0
2023-12-06,04:10:00,DRY,0.80,10.67,10.3,773.00,0.0
2023-12-06,04:15:00,DRY,0.70,10.90,12.0,773.00,0.0
2023-12-06,04:20:00,DRY,0.97,11.30,12.0,773.00,0.0
2023-12-06,04:25:00,DRY,0.60,11.50,15.5,773.00,0.0
2023-12-06,04:30:00,DRY,0.30,11.37,13.0,773.00,0.0
2023-12-06,04:35:00,DRY,0.40,11.25,13.0,773.00,0.0
2023-12-06,04:40:00,DRY,0.63,11.13,13.0,773.00,0.0
2023-12-06,04:45:00,DRY,0.70,11.30,13.0,773.00,0.0
2023-12-06,04:50:00,DRY,0.80,11.43,12.7,773.00,0.0
2023-12-06,04:55:00,DRY,1.05,11.70,14.0,773.00,0.0
2023-12-06,05:00:00,DRY,1.73,10.73,12.3,773.00,0.0
2023-12-06,05:05:00,DRY,0.45,10.15,9.5,773.00,0.0
2023-12-06,05:10:00,DRY,1.27,10.23,9.0,773.00,0.0
2023-12-06,05:15:00,DRY,1.00,10.05,9.5,773.00,0.0
2023-12-06,05:20:00,DRY,0.75,10.20,9.5,773.00,0.0
2023-12-06,05:25:00,DRY,0.45,10.00,9.0,773.00,0.0
2023-12-06,05:30:00,DRY,1.07,10.10,8.0,773.00,0.0
2023-12-06,05:35:00,DRY,0.90,10.10,8.0,773.00,0.0
2023-12-06,05:40:00,DRY,2.30,10.63,7.3,773.00,0.0
2023-12-06,05:45:00,DRY,1.75,11.15,7.0,773.00,0.0
2023-12-06,05:50:00,DRY,1.97,11.37,7.7,773.00,0.0
2023-12-06,05:55:00,DRY,2.50,10.90,9.0,773.00,0.0
2023-12-06,06:00:00,DRY,2.00,10.53,9.3,773.00,0.0
2023-12-06,06:05:00,DRY,2.00,10.40,9.0,773.00,0.0
2023-12-06,06:10:00,DRY,2.10,10.47,9.0,773.00,0.0
2023-12-06,06:15:00,DRY,2.80,10.40,12.0,773.00,0.0
2023-12-06,06:20:00,DRY,2.27,9.83,13.7,773.00,0.0
2023-12-06,06:25:00,DRY,2.20,10.00,10.5,773.00,0.0
2023-12-06,06:30:00,DRY,2.43,10.20,10.0,773.00,0.0
2023-12-06,06:35:00,DRY,2.20,10.25,11.0,773.00,0.0
2023-12-06,06:40:00,DRY,2.90,10.40,10.0,773.00,0.0
2023-12-06,06:45:00,DRY,3.25,10.45,11.5,773.00,0.0
2023-12-06,06:50:00,DRY,4.37,10.10,17.7,773.00,0.0
2023-12-06,06:55:00,DRY,4.55,9.70,20.5,773.00,0.0
2023-12-06,07:00:00,DRY,3.97,9.47,25.3,773.00,0.0
2023-12-06,07:05:00,DRY,3.95,9.35,29.5,773.00,0.0
2023-12-06,07:10:00,DRY,3.70,9.30,27.0,773.00,0.0
2023-12-06,07:15:00,DRY,2.10,9.35,22.5,773.00,0.0
2023-12-06,07:20:00,DRY,1.77,9.33,17.0,773.00,0.0
2023-12-06,07:25:00,DRY,2.80,9.65,14.5,773.00,0.0
2023-12-06,07:30:00,DRY,1.30,10.03,16.3,773.67,0.0
2023-12-06,07:35:00,DRY,1.30,10.05,16.0,774.00,0.0
2023-12-06,07:40:00,DRY,2.00,10.03,18.3,774.00,0.0
2023-12-06,07:45:00,DRY,2.15,9.90,19.0,774.00,0.0
2023-12-06,07:50:00,DRY,2.10,9.70,19.3,774.00,0.0
2023-12-06,07:55:00,DRY,2.25,9.80,18.0,774.00,0.0
2023-12-06,08:00:00,DRY,1.97,9.70,18.0,774.00,2.0
2023-12-06,08:05:00,DRY,3.10,9.60,18.0,774.00,6.0
2023-12-06,08:10:00,DRY,3.67,9.80,17.7,774.00,10.7
2023-12-06,08:15:00,DRY,4.70,9.90,18.5,774.00,14.0
2023-12-06,08:20:00,DRY,4.80,9.97,18.7,774.00,17.7
2023-12-06,08:25:00,DRY,4.95,9.95,21.5,774.00,24.5
2023-12-06,08:30:00,DRY,4.33,9.83,23.3,774.00,29.0
2023-12-06,08:35:00,DRY,3.95,9.80,23.0,774.00,34.5
2023-12-06,08:40:00,DRY,3.73,9.87,23.0,774.00,40.0
2023-12-06,08:45:00,DRY,2.85,9.90,21.5,774.00,47.5
2023-12-06,08:50:00,DRY,3.70,10.07,19.7,774.00,54.7
2023-12-06,08:55:00,DRY,2.45,10.40,16.5,774.00,61.5
2023-12-06,09:00:00,DRY,4.00,10.83,14.7,774.00,67.7
2023-12-06,09:05:00,DRY,3.40,10.90,15.5,774.00,69.5
2023-12-06,09:10:00,DRY,3.10,11.00,15.0,774.00,71.0
2023-12-06,09:15:00,DRY,1.60,11.30,15.0,774.00,79.0
2023-12-06,09:20:00,DRY,2.75,11.35,15.0,774.00,83.5
2023-12-06,09:25:00,,,,,,
2023-12-06,09:30:00,DRY,3.67,10.87,18.0,774.00,100.7
2023-12-06,09:35:00,DRY,3.20,10.75,18.5,774.00,103.5
2023-12-06,09:40:00,DRY,2.60,10.80,19.0,774.00,111.3
2023-12-06,09:45:00,DRY,3.90,10.65,20.5,774.00,117.5
2023-12-06,09:50:00,DRY,4.13,10.90,17.3,774.00,118.3
2023-12-06,09:55:00,DRY,3.85,10.85,19.0,774.00,125.5
2023-12-06,10:00:00,DRY,4.50,10.70,21.0,775.00,123.7
2023-12-06,10:05:00,DRY,4.35,10.30,24.0,775.00,116.5
2023-12-06,10:10:00,DRY,2.50,10.33,24.0,775.00,112.7
2023-12-06,10:15:00,DRY,3.05,10.70,21.0,775.00,117.5
2023-12-06,10:20:00,DRY,2.97,10.97,18.7,775.00,124.7
2023-12-06,10:25:00,DRY,2.15,11.15,17.5,775.00,123.0
2023-12-06,10:30:00,DRY,2.80,11.30,15.3,775.00,125.7
2023-12-06,10:35:00,DRY,2.30,11.45,16.5,775.00,126.5
2023-12-06,10:40:00,DRY,2.43,11.50,17.0,775.00,136.0
2023-12-06,10:45:00,DRY,2.55,11.65,13.5,775.00,156.0
2023-12-06,10:50:00,DRY,3.23,11.70,13.7,775.00,164.7
2023-12-06,10:55:00,DRY,2.65,11.75,14.5,775.00,175.5
2023-12-06,11:00:00,DRY,3.20,11.50,15.7,775.00,172.0
2023-12-06,11:05:00,DRY,2.15,11.60,17.0,775.00,156.0
2023-12-06,11:10:00,DRY,3.07,11.57,15.0,775.00,149.0
2023-12-06,11:15:00,DRY,3.35,11.50,18.0,775.00,156.5
2023-12-06,11:20:00,DRY,3.10,11.33,19.3,775.00,168.3
2023-12-06,11:25:00,DRY,3.70,11.20,25.0,775.00,169.0
2023-12-06,11:30:00,DRY,2.83,10.70,27.3,775.00,185.3
2023-12-06,11:35:00,DRY,2.90,11.05,27.5,775.00,195.0
2023-12-06,11:40:00,DRY,2.80,11.07,17.7,775.00,213.0
2023-12-06,11:45:00,DRY,3.55,11.30,20.0,775.00,212.5
2023-12-06,11:50:00,DRY,3.40,11.03,19.7,775.00,208.3
2023-12-06,11:55:00,DRY,2.80,11.10,17.0,775.00,211.0
2023-12-06,12:00:00,DRY,3.03,11.20,15.0,775.00,212.3
2023-12-06,12:05:00,DRY,2.35,11.65,13.0,775.00,196.5
2023-12-06,12:10:00,DRY,1.83,11.90,14.0,775.00,185.0
2023-12-06,12:15:00,DRY,2.60,12.05,14.5,775.00,174.5
2023-12-06,12:20:00,DRY,2.57,12.10,13.3,775.00,172.0
2023-12-06,12:25:00,DRY,1.10,12.10,12.5,775.00,175.0
2023-12-06,12:30:00,DRY,2.43,12.10,10.7,775.00,169.0
2023-12-06,12:35:00,DRY,2.65,11.95,9.5,774.00,165.0
2023-12-06,12:40:00,DRY,2.93,11.97,12.3,774.33,155.0
2023-12-06,12:45:00,DRY,2.15,12.20,12.5,774.00,166.0
2023-12-06,12:50:00,DRY,1.57,12.27,12.3,774.00,207.0
2023-12-06,12:55:00,DRY,1.80,12.20,11.0,774.00,211.0
2023-12-06,13:00:00,DRY,1.90,12.13,10.7,774.00,199.7
2023-12-06,13:05:00,DRY,1.95,11.90,11.0,774.00,255.5
2023-12-06,13:10:00,DRY,2.07,11.70,11.0,774.00,248.0
2023-12-06,13:15:00,DRY,1.10,11.60,10.0,774.00,193.0
2023-12-06,13:20:00,DRY,2.47,11.60,10.3,774.00,208.3
2023-12-06,13:25:00,DRY,1.75,11.70,10.0,774.00,231.5
2023-12-06,13:30:00,DRY,2.70,11.80,12.5,774.00,205.5
2023-12-06,13:35:00,DRY,3.80,12.00,12.0,774.00,197.0
2023-12-06,13:40:00,DRY,3.20,11.97,12.7,774.00,187.7
2023-12-06,13:45:00,DRY,4.55,11.90,13.0,774.00,184.0
2023-12-06,13:50:00,DRY,2.97,11.90,13.3,774.00,178.7
2023-12-06,13:55:00,DRY,3.65,11.90,13.0,774.00,182.0
2023-12-06,14:00:00,DRY,2.53,11.90,12.0,774.00,192.0
2023-12-06,14:05:00,DRY,2.35,11.95,13.0,774.00,197.0
2023-12-06,14:10:00,DRY,3.97,12.00,11.3,774.00,196.7
2023-12-06,14:15:00,DRY,3.80,12.00,14.0,774.00,197.5
2023-12-06,14:20:00,DRY,3.73,12.00,14.3,774.00,199.0
2023-12-06,14:25:00,DRY,4.45,12.05,16.5,773.00,260.0
2023-12-06,14:30:00,DRY,3.37,12.27,18.7,773.00,246.7
2023-12-06,14:35:00,DRY,2.15,12.30,17.5,773.50,228.0
2023-12-06,14:40:00,DRY,2.13,12.27,16.3,773.33,304.0
2023-12-06,14:45:00,DRY,3.75,12.40,16.0,773.00,340.5
2023-12-06,14:50:00,DRY,2.30,12.20,17.0,773.00,314.0
2023-12-06,14:55:00,DRY,2.20,12.25,17.0,773.00,294.5
2023-12-06,15:00:00,DRY,2.10,12.13,19.7,773.00,238.3
2023-12-06,15:05:00,DRY,3.05,11.95,20.5,773.50,202.5
2023-12-06,15:10:00,DRY,2.83,11.80,21.3,773.33,184.3
2023-12-06,15:15:00,DRY,3.00,11.55,26.0,773.00,171.0
2023-12-06,15:20:00,DRY,2.77,11.07,31.7,773.00,170.7
2023-12-06,15:25:00,DRY,3.00,10.55,29.0,773.00,173.0
2023-12-06,15:30:00,DRY,1.07,10.23,34.7,774.00,147.7
2023-12-06,15:35:00,DRY,1.60,10.00,35.5,774.00,174.0
2023-12-06,15:40:00,DRY,1.70,9.50,54.0,774.00,214.3
2023-12-06,15:45:00,DRY,1.75,8.95,57.5,774.00,249.0
2023-12-06,15:50:00,DRY,2.00,9.20,41.3,774.00,197.0
2023-12-06,15:55:00,DRY,1.40,8.95,30.0,774.00,250.0
2023-12-06,16:00:00,DRY,1.73,8.93,28.0,774.00,290.7
2023-12-06,16:05:00,DRY,2.15,9.10,27.5,774.00,251.5
2023-12-06,16:10:00,DRY,2.33,9.27,29.0,774.00,335.7
2023-12-06,16:15:00,DRY,2.50,9.50,29.5,774.00,416.0
2023-12-06,16:20:00,DRY,3.70,9.40,28.7,774.00,202.3
2023-12-06,16:25:00,DRY,3.25,9.30,28.0,774.00,162.5
2023-12-06,16:30:00,DRY,3.63,9.20,31.0,774.00,172.0
2023-12-06,16:35:00,DRY,3.20,9.05,31.0,774.00,168.5
2023-12-06,16:40:00,DRY,3.90,9.07,29.7,774.00,176.0
2023-12-06,16:45:00,DRY,2.60,9.25,30.0,774.00,278.5
2023-12-06,16:50:00,DRY,3.33,9.70,29.0,774.00,182.7
2023-12-06,16:55:00,DRY,3.05,9.65,30.0,774.00,131.5
2023-12-06,17:00:00,DRY,2.63,9.43,30.3,774.00,108.7
2023-12-06,17:05:00,DRY,3.50,9.30,31.0,774.00,90.0
2023-12-06,17:10:00,DRY,2.60,9.07,31.7,774.00,90.3
2023-12-06,17:15:00,DRY,2.35,9.00,32.5,774.00,85.0
2023-12-06,17:20:00,DRY,2.33,8.90,30.3,774.00,78.0
2023-12-06,17:25:00,DRY,2.40,8.75,31.5,774.00,64.5
2023-12-06,17:30:00,DRY,3.37,8.63,33.3,774.00,52.7
2023-12-06,17:35:00,DRY,3.85,8.60,33.5,774.00,42.5
2023-12-06,17:40:00,DRY,3.20,8.73,40.3,774.00,40.7
2023-12-06,17:45:00,DRY,3.60,8.95,40.0,774.00,33.0
2023-12-06,17:50:00,DRY,4.40,8.87,39.7,774.00,22.0
2023-12-06,17:55:00,DRY,3.00,9.20,36.0,774.00,16.5
2023-12-06,18:00:00,DRY,3.20,9.40,27.0,774.00,16.7
2023-12-06,18:05:00,DRY,4.35,9.60,24.5,774.00,14.0
2023-12-06,18:10:00,DRY,3.17,9.70,22.7,774.00,7.3
2023-12-06,18:15:00,DRY,2.85,9.70,19.5,774.50,0.5
2023-12-06,18:20:00,DRY,2.03,9.73,18.3,775.00,0.0
2023-12-06,18:25:00,DRY,1.70,9.70,18.0,775.00,0.0
2023-12-06,18:30:00,DRY,1.57,9.67,18.3,775.00,0.0
2023-12-06,18:35:00,DRY,1.15,9.60,18.5,775.00,0.0
2023-12-06,18:40:00,DRY,1.70,9.50,19.7,775.00,0.0
2023-12-06,18:45:00,DRY,1.35,9.50,20.5,775.00,0.0
2023-12-06,18:50:00,DRY,1.37,9.53,19.0,775.00,0.0
2023-12-06,18:55:00,DRY,0.60,9.50,21.0,775.00,0.0
2023-12-06,19:00:00,DRY,1.47,9.37,22.7,775.00,0.0
2023-12-06,19:05:00,DRY,2.20,9.40,21.0,775.00,0.0
2023-12-06,19:10:00,DRY,2.20,9.23,21.7,775.00,0.0
2023-12-06,19:15:00,DRY,1.90,9.35,21.5,775.00,0.0
2023-12-06,19:20:00,DRY,2.53,9.43,20.7,775.00,0.0
2023-12-06,19:25:00,DRY,2.30,9.45,21.0,775.00,0.0
2023-12-06,19:30:00,DRY,2.07,9.40,20.3,775.00,0.0
2023-12-06,19:35:00,DRY,2.45,9.45,17.0,775.00,0.0
2023-12-06,19:40:00,DRY,2.10,9.50,17.3,775.00,0.0
2023-12-06,19:45:00,DRY,1.60,9.70,15.5,775.00,0.0
2023-12-06,19:50:00,DRY,2.23,9.73,14.7,775.00,0.0
2023-12-06,19:55:00,DRY,1.55,9.85,14.0,775.00,0.0
2023-12-06,20:00:00,DRY,1.53,9.97,14.0,775.00,0.0
2023-12-06,20:05:00,DRY,1.15,10.00,14.0,775.00,0.0
2023-12-06,20:10:00,DRY,1.47,10.07,14.0,775.00,0.0
2023-12-06,20:15:00,DRY,1.40,10.20,15.0,775.00,0.0
2023-12-06,20:20:00,DRY,1.73,10.13,19.0,775.00,0.0
2023-12-06,20:25:00,DRY,1.20,10.10,20.0,775.00,0.0
2023-12-06,20:30:00,DRY,1.70,10.23,19.3,775.00,0.0
2023-12-06,20:35:00,DRY,2.30,10.45,18.0,775.00,0.0
2023-12-06,20:40:00,DRY,1.70,10.70,16.3,775.00,0.0
2023-12-06,20:45:00,DRY,1.70,10.75,15.5,775.00,0.0
2023-12-06,20:50:00,DRY,1.13,10.77,15.3,775.00,0.0
2023-12-06,20:55:00,DRY,0.50,10.70,15.0,775.50,0.0
2023-12-06,21:00:00,DRY,0.40,10.63,16.0,776.00,0.0
2023-12-06,21:05:00,DRY,1.30,10.70,15.0,775.00,0.0
2023-12-06,21:10:00,DRY,1.40,11.07,14.3,775.00,0.0
2023-12-06,21:15:00,DRY,1.45,11.25,15.0,775.50,0.0
2023-12-06,21:20:00,DRY,0.83,11.33,15.0,775.33,0.0
2023-12-06,21:25:00,DRY,0.65,11.15,15.5,776.00,0.0
2023-12-06,21:30:00,DRY,1.23,10.93,16.7,776.00,0.0
2023-12-06,21:35:00,DRY,2.30,10.90,17.0,776.00,0.0
2023-12-06,21:40:00,DRY,1.30,11.03,17.0,776.00,0.0
2023-12-06,21:45:00,DRY,1.35,11.30,17.0,776.00,0.0
2023-12-06,21:50:00,DRY,0.97,11.40,17.0,776.00,0.0
2023-12-06,21:55:00,DRY,1.10,11.50,17.5,776.00,0.0
2023-12-06,22:00:00,DRY,1.20,11.43,18.0,776.00,0.0
2023-12-06,22:05:00,DRY,1.50,11.15,18.0,776.00,0.0
2023-12-06,22:10:00,DRY,1.60,10.87,18.0,776.00,0.0
2023-12-06,22:15:00,DRY,1.85,11.20,17.0,776.00,0.0
2023-12-06,22:20:00,DRY,1.43,11.07,17.7,776.00,0.0
2023-12-06,22:25:00,DRY,1.65,10.90,18.5,776.00,0.0
2023-12-06,22:30:00,DRY,1.70,10.87,17.7,776.00,0.0
2023-12-06,22:35:00,DRY,1.60,10.70,18.0,776.00,0.0
2023-12-06,22:40:00,DRY,2.37,10.43,18.7,776.00,0.0
2023-12-06,22:45:00,DRY,2.20,10.45,18.0,776.00,0.0
2023-12-06,22:50:00,DRY,2.00,10.50,18.0,776.00,0.0
2023-12-06,22:55:00,DRY,1.80,10.45,18.5,776.00,0.0
2023-12-06,23:00:00,DRY,1.97,10.33,18.7,776.00,0.0
2023-12-06,23:05:00,DRY,2.25,10.45,18.0,776.00,0.0
2023-12-06,23:10:00,DRY,2.30,10.43,18.7,776.00,0.0
2023-12-06,23:15:00,DRY,1.85,10.60,18.5,776.00,0.0
2023-12-06,23:20:00,DRY,2.03,10.77,16.7,776.00,0.0
2023-12-06,23:25:00,DRY,2.00,11.30,15.0,776.00,0.0
2023-12-06,23:30:00,DRY,2.43,11.40,14.0,776.00,0.0
2023-12-06,23:35:00,DRY,2.15,11.40,14.0,776.00,0.0
2023-12-06,23:40:00,DRY,1.63,11.33,14.0,776.00,0.0
2023-12-06,23:45:00,DRY,2.75,11.30,15.0,776.00,0.0
2023-12-06,23:50:00,DRY,1.77,11.20,15.0,776.00,0.0
2023-12-06,23:55:00,DRY,1.40,11.00,15.0,776.00,0.0
2023-12-07,00:00:00,DRY,2.20,10.90,15.0,776.00,0.0
2023-12-07,00:05:00,DRY,0.95,10.90,15.5,776.00,0.0
2023-12-07,00:10:00,DRY,1.53,10.93,15.0,776.00,0.0
2023-12-07,00:15:00,DRY,2.30,11.00,15.0,776.00,0.0
2023-12-07,00:20:00,DRY,1.83,11.03,15.3,776.00,0.0
2023-12-07,00:25:00,DRY,1.85,11.00,15.5,776.00,0.0
2023-12-07,00:30:00,DRY,1.50,11.00,15.7,775.67,0.0
2023-12-07,00:35:00,DRY,2.75,11.10,14.5,775.50,0.0
2023-12-07,00:40:00,DRY,1.67,11.07,15.7,775.33,0.0
2023-12-07,00:45:00,DRY,2.00,11.00,15.5,775.00,0.0
2023-12-07,00:50:00,DRY,1.57,10.93,16.3,775.00,0.0
2023-12-07,00:55:00,DRY,1.25,10.90,16.5,775.00,0.0
2023-12-07,01:00:00,DRY,1.53,10.83,16.0,775.00,0.0
2023-12-07,01:05:00,DRY,1.25,10.75,16.0,775.00,0.0
2023-12-07,01:10:00,DRY,2.03,10.83,17.7,775.00,0.0
2023-12-07,01:15:00,DRY,1.50,10.90,19.5,775.00,0.0
2023-12-07,01:20:00,DRY,1.87,10.80,20.7,775.00,0.0
2023-12-07,01:25:00,DRY,2.70,10.80,20.5,775.00,0.0
2023-12-07,01:30:00,DRY,1.90,10.70,21.3,775.00,0.0
2023-12-07,01:35:00,DRY,1.45,10.70,20.5,775.00,0.0
2023-12-07,01:40:00,DRY,1.87,10.60,20.0,775.00,0.0
2023-12-07,01:45:00,DRY,2.45,10.60,20.0,775.00,0.0
2023-12-07,01:50:00,DRY,2.90,10.67,20.7,775.00,0.0
2023-12-07,01:55:00,DRY,2.15,10.65,22.5,775.00,0.0
2023-12-07,02:00:00,DRY,2.90,10.77,23.0,775.00,0.0
2023-12-07,02:05:00,DRY,3.15,10.95,23.0,775.00,0.0
2023-12-07,02:10:00,DRY,2.97,10.97,23.0,775.00,0.0
2023-12-07,02:15:00,DRY,2.80,11.00,21.5,775.00,0.0
2023-12-07,02:20:00,DRY,2.17,11.00,19.0,775.00,0.0
2023-12-07,02:25:00,DRY,3.75,11.00,18.5,775.00,0.0
2023-12-07,02:30:00,DRY,2.83,11.00,17.0,775.00,0.0
2023-12-07,02:35:00,DRY,2.80,11.00,14.5,775.00,0.0
2023-12-07,02:40:00,DRY,2.43,11.03,13.3,775.00,0.0
2023-12-07,02:45:00,DRY,2.55,11.10,13.5,775.00,0.0
2023-12-07,02:50:00,DRY,3.60,11.13,13.3,775.00,0.0
2023-12-07,02:55:00,DRY,2.55,11.35,12.0,775.00,0.0
2023-12-07,03:00:00,DRY,3.20,11.57,11.0,775.00,0.0
2023-12-07,03:05:00,DRY,4.60,11.60,11.5,775.00,0.0
2023-12-07,03:10:00,DRY,3.37,11.67,11.0,775.00,0.0
2023-12-07,03:15:00,DRY,3.65,11.65,11.0,775.00,0.0
2023-12-07,03:20:00,DRY,3.13,11.57,10.3,775.00,0.0
2023-12-07,03:25:00,DRY,4.15,11.60,10.0,775.00,0.0
2023-12-07,03:30:00,DRY,3.90,11.67,10.0,775.00,0.0
2023-12-07,03:35:00,DRY,4.35,11.60,10.0,775.00,0.0
2023-12-07,03:40:00,DRY,3.47,11.57,10.3,775.00,0.0
2023-12-07,03:45:00,DRY,2.90,11.50,10.0,775.00,0.0
2023-12-07,03:50:00,DRY,3.37,11.70,9.0,775.00,0.0
2023-12-07,03:55:00,DRY,3.65,11.80,9.0,775.00,0.0
2023-12-07,04:00:00,DRY,3.67,11.87,8.3,775.00,0.0
2023-12-07,04:05:00,DRY,4.85,12.00,8.0,775.00,0.0
2023-12-07,04:10:00,DRY,4.43,11.97,7.3,775.00,0.0
2023-12-07,04:15:00,DRY,3.10,12.00,7.0,775.00,0.0
2023-12-07,04:20:00,DRY,4.33,12.03,7.0,775.00,0.0
2023-12-07,04:25:00,DRY,5.20,11.95,7.0,775.00,0.0
2023-12-07,04:30:00,DRY,4.20,11.93,7.0,775.00,0.0
2023-12-07,04:35:00,DRY,4.15,12.00,7.0,775.00,0.0
2023-12-07,04:40:00,DRY,4.93,12.10,6.3,775.00,0.0
2023-12-07,04:45:00,DRY,6.15,12.10,6.0,775.00,0.0
2023-12-07,04:50:00,DRY,4.63,12.20,6.7,775.00,0.0
2023-12-07,04:55:00,DRY,2.30,12.20,7.0,775.00,0.0
2023-12-07,05:00:00,DRY,4.10,12.10,7.0,775.00,0.0
2023-12-07,05:05:00,DRY,5.55,12.25,7.0,775.00,0.0
2023-12-07,05:10:00,DRY,4.47,12.30,7.0,775.00,0.0
2023-12-07,05:15:00,DRY,5.30,12.30,7.0,775.00,0.0
2023-12-07,05:20:00,DRY,3.93,12.20,7.0,775.00,0.0
2023-12-07,05:25:00,DRY,5.30,12.10,6.5,775.00,0.0
2023-12-07,05:30:00,DRY,4.37,12.03,6.3,775.00,0.0
2023-12-07,05:35:00,DRY,4.10,11.85,7.0,775.00,0.0
2023-12-07,05:40:00,DRY,4.13,11.97,6.0,775.00,0.0
2023-12-07,05:45:00,DRY,5.30,12.15,6.0,775.00,0.0
2023-12-07,05:50:00,DRY,4.83,12.17,6.0,775.00,0.0
2023-12-07,05:55:00,DRY,3.55,12.10,6.0,775.00,0.0
2023-12-07,06:00:00,DRY,4.33,12.00,6.0,775.00,0.0
2023-12-07,06:05:00,DRY,4.40,11.85,7.0,775.00,0.0
2023-12-07,06:10:00,DRY,4.77,11.87,7.0,775.00,0.0
2023-12-07,06:15:00,DRY,2.85,11.70,7.0,775.00,0.0
2023-12-07,06:20:00,DRY,4.43,11.67,7.0,775.00,0.0
2023-12-07,06:25:00,DRY,4.30,11.80,7.0,775.00,0.0
2023-12-07,06:30:00,DRY,4.03,11.87,7.0,775.00,0.0
2023-12-07,06:35:00,DRY,3.45,11.75,7.0,775.00,0.0
2023-12-07,06:40:00,DRY,3.33,11.57,8.0,775.00,0.0
2023-12-07,06:45:00,DRY,2.95,10.45,11.5,775.00,0.0
2023-12-07,06:50:00,DRY,3.03,9.57,14.3,775.00,0.0
2023-12-07,06:55:00,DRY,1.55,9.45,13.5,775.00,0.0
2023-12-07,07:00:00,DRY,2.20,9.50,13.0,775.00,0.0
2023-12-07,07:05:00,DRY,1.80,9.85,10.0,775.00,0.0
2023-12-07,07:10:00,DRY,1.93,10.77,7.3,775.00,0.0
2023-12-07,07:15:00,DRY,2.05,11.10,7.0,775.00,0.0
2023-12-07,07:20:00,DRY,2.47,11.60,6.3,775.00,0.0
2023-12-07,07:25:00,DRY,3.75,12.25,6.0,775.50,0.0
2023-12-07,07:30:00,DRY,3.37,12.20,6.0,775.67,0.0
2023-12-07,07:35:00,DRY,2.75,12.45,5.5,776.00,0.0
2023-12-07,07:40:00,DRY,2.77,12.27,6.0,776.00,0.0
2023-12-07,07:45:00,DRY,2.85,12.45,6.0,776.00,0.0
2023-12-07,07:50:00,DRY,2.80,12.70,6.3,776.00,0.0
2023-12-07,07:55:00,DRY,1.60,12.80,6.5,776.00,0.5
2023-12-07,08:00:00,DRY,2.60,12.83,6.3,776.00,3.3
2023-12-07,08:05:00,DRY,3.25,12.90,6.0,776.00,11.0
2023-12-07,08:10:00,DRY,3.37,12.80,5.7,776.00,21.0
2023-12-07,08:15:00,DRY,2.25,12.75,5.5,776.00,32.5
2023-12-07,08:20:00,DRY,3.83,12.37,6.3,776.00,40.0
2023-12-07,08:25:00,DRY,2.45,11.70,7.0,776.00,51.5
2023-12-07,08:30:00,DRY,3.07,11.90,6.3,776.00,61.0
2023-12-07,08:35:00,DRY,2.30,12.35,6.0,776.00,129.0
2023-12-07,08:40:00,DRY,1.87,12.40,6.0,776.00,112.7
2023-12-07,08:45:00,DRY,2.45,12.40,6.0,776.00,218.5
2023-12-07,08:50:00,DRY,2.90,12.17,6.7,776.00,252.0
2023-12-07,08:55:00,DRY,1.50,12.10,6.0,776.00,254.5
2023-12-07,09:00:00,DRY,1.57,12.37,6.0,776.00,223.3
2023-12-07,09:05:00,DRY,1.45,12.40,6.0,776.00,228.5
2023-12-07,09:10:00,DRY,2.50,12.43,6.0,776.00,246.0
2023-12-07,09:15:00,DRY,2.05,12.20,6.5,776.00,264.0
2023-12-07,09:20:00,DRY,2.13,12.00,6.3,776.00,282.7
2023-12-07,09:25:00,DRY,3.55,12.05,6.0,777.00,299.5
2023-12-07,09:30:00,DRY,2.13,12.30,6.3,777.00,317.7
2023-12-07,09:35:00,DRY,3.10,12.30,6.5,777.00,334.0
2023-12-07,09:40:00,DRY,2.63,12.43,7.0,777.00,351.0
2023-12-07,09:45:00,DRY,3.05,12.60,6.5,777.00,367.5
2023-12-07,09:50:00,DRY,1.97,12.60,6.3,777.00,383.0
2023-12-07,09:55:00,DRY,2.40,12.60,6.5,777.00,399.0
2023-12-07,10:00:00,DRY,2.70,12.60,6.7,777.00,414.7
2023-12-07,10:05:00,DRY,2.40,12.55,7.0,777.00,430.0
2023-12-07,10:10:00,DRY,2.73,12.57,6.0,777.00,444.7
2023-12-07,10:15:00,DRY,2.60,12.60,7.0,777.00,459.0
2023-12-07,10:20:00,DRY,1.20,12.77,6.0,777.00,471.7
2023-12-07,10:25:00,DRY,1.05,12.80,6.5,777.00,485.0
2023-12-07,10:30:00,DRY,2.07,12.90,6.7,777.00,498.7
2023-12-07,10:35:00,DRY,1.80,13.00,6.5,777.00,511.0
2023-12-07,10:40:00,DRY,1.07,13.50,6.0,777.00,523.0
2023-12-07,10:45:00,DRY,0.40,13.90,7.0,777.00,533.5
2023-12-07,10:50:00,DRY,0.50,14.20,6.7,777.00,544.0
2023-12-07,10:55:00,DRY,0.70,14.25,6.0,777.00,555.0
2023-12-07,11:00:00,DRY,0.93,14.33,5.3,777.00,565.7
2023-12-07,11:05:00,DRY,1.15,14.65,6.0,777.00,576.0
2023-12-07,11:10:00,DRY,1.10,13.97,7.3,777.00,585.7
2023-12-07,11:15:00,DRY,0.90,13.70,7.0,777.00,595.0
2023-12-07,11:20:00,DRY,1.20,13.83,6.3,777.00,603.7
2023-12-07,11:25:00,DRY,1.00,13.50,5.0,777.00,610.0
2023-12-07,11:30:00,DRY,0.67,14.33,5.0,777.00,620.0
2023-12-07,11:35:00,DRY,0.80,15.60,5.0,777.00,629.5
2023-12-07,11:40:00,DRY,0.67,16.27,6.0,777.00,637.0
2023-12-07,11:45:00,DRY,1.40,16.70,7.5,777.00,644.5
2023-12-07,11:50:00,DRY,0.80,16.47,8.7,777.00,650.7
2023-12-07,11:55:00,DRY,1.20,15.95,10.5,777.00,656.5
2023-12-07,12:00:00,DRY,1.27,16.07,9.7,777.00,662.7
2023-12-07,12:05:00,DRY,1.05,16.15,15.0,777.00,668.0
2023-12-07,12:10:00,DRY,0.93,16.10,11.3,777.00,672.0
2023-12-07,12:15:00,DRY,0.75,16.15,13.0,777.00,676.5
2023-12-07,12:20:00,DRY,1.03,15.60,10.0,777.00,678.7
2023-12-07,12:25:00,DRY,0.70,14.15,7.0,777.00,680.0
2023-12-07,12:30:00,DRY,0.90,15.77,11.3,777.00,686.7
2023-12-07,12:35:00,DRY,0.75,16.55,12.0,777.00,688.5
2023-12-07,12:40:00,DRY,0.93,16.63,13.7,777.00,690.3
2023-12-07,12:45:00,DRY,0.35,16.85,19.5,777.00,689.5
2023-12-07,12:50:00,DRY,1.10,16.33,15.0,777.00,692.3
2023-12-07,12:55:00,DRY,0.65,16.60,14.5,776.00,695.0
2023-12-07,13:00:00,DRY,1.55,16.95,13.5,776.00,695.5
2023-12-07,13:05:00,DRY,1.95,17.10,13.5,776.00,697.5
2023-12-07,13:10:00,DRY,1.57,16.80,15.0,776.00,696.0
2023-12-07,13:15:00,DRY,1.60,16.55,15.0,776.00,695.5
2023-12-07,13:20:00,DRY,0.77,16.40,17.3,776.00,691.3
2023-12-07,13:25:00,DRY,1.35,16.15,22.5,776.00,688.5
2023-12-07,13:30:00,DRY,2.85,16.10,20.5,776.00,689.5
2023-12-07,13:35:00,DRY,1.10,16.10,15.0,776.00,686.0
2023-12-07,13:40:00,DRY,1.53,15.00,20.3,776.00,679.7
2023-12-07,13:45:00,DRY,1.00,14.70,17.5,776.00,674.0
2023-12-07,13:50:00,DRY,2.20,15.43,17.0,776.00,674.3
2023-12-07,13:55:00,DRY,1.20,15.80,16.0,776.00,671.0
2023-12-07,14:00:00,DRY,1.13,16.67,14.0,776.00,665.0
2023-12-07,14:05:00,DRY,1.20,16.70,13.0,776.00,658.5
2023-12-07,14:10:00,DRY,1.07,16.47,13.7,776.00,651.3
2023-12-07,14:15:00,DRY,2.85,15.60,19.5,776.00,645.5
2023-12-07,14:20:00,DRY,2.40,15.60,18.3,776.00,641.0
2023-12-07,14:25:00,DRY,1.90,15.95,14.0,776.00,633.0
2023-12-07,14:30:00,DRY,1.20,16.10,18.7,776.00,622.3
2023-12-07,14:35:00,DRY,1.95,15.80,31.5,776.00,614.0
2023-12-07,14:40:00,DRY,1.00,15.53,36.0,776.00,603.7
2023-12-07,14:45:00,DRY,1.20,14.75,34.0,776.00,597.0
2023-12-07,14:50:00,DRY,0.73,14.40,36.7,776.00,591.7
2023-12-07,14:55:00,DRY,1.65,14.00,36.5,776.00,582.5
2023-12-07,15:00:00,DRY,1.30,14.07,33.0,776.00,562.0
2023-12-07,15:05:00,DRY,1.70,13.85,29.0,776.00,591.0
2023-12-07,15:10:00,DRY,1.17,14.20,22.3,776.00,587.3
2023-12-07,15:15:00,DRY,0.90,14.60,18.5,776.00,366.0
2023-12-07,15:20:00,DRY,1.13,14.90,16.3,776.00,452.3
2023-12-07,15:25:00,DRY,1.60,14.85,11.5,776.00,373.5
2023-12-07,15:30:00,DRY,1.27,14.93,10.0,776.00,318.7
2023-12-07,15:35:00,DRY,1.50,14.80,7.0,776.00,333.0
2023-12-07,15:40:00,DRY,1.50,14.77,8.0,776.00,280.3
2023-12-07,15:45:00,DRY,2.50,14.60,10.5,776.00,339.5
2023-12-07,15:50:00,DRY,2.17,14.70,10.3,776.00,467.3
2023-12-07,15:55:00,DRY,2.10,14.95,7.5,776.00,468.0
2023-12-07,16:00:00,DRY,0.77,15.20,9.3,776.00,395.3
2023-12-07,16:05:00,DRY,1.10,14.45,13.5,776.00,419.5
2023-12-07,16:10:00,DRY,1.50,13.50,14.0,776.00,454.3
2023-12-07,16:15:00,DRY,1.90,13.60,11.5,776.00,382.5
2023-12-07,16:20:00,DRY,0.70,14.30,9.3,776.00,386.0
2023-12-07,16:25:00,DRY,0.75,15.05,7.0,776.00,332.5
2023-12-07,16:30:00,DRY,0.90,13.83,14.7,776.00,328.3
2023-12-07,16:35:00,DRY,1.60,13.55,12.0,776.00,313.5
2023-12-07,16:40:00,DRY,1.13,14.37,8.7,776.00,255.0
2023-12-07,16:45:00,DRY,1.70,14.45,8.0,776.00,271.0
2023-12-07,16:50:00,DRY,1.80,13.23,13.3,776.00,258.7
2023-12-07,16:55:00,DRY,1.80,12.50,11.5,776.00,231.0
2023-12-07,17:00:00,DRY,2.57,11.70,12.7,777.00,205.3
2023-12-07,17:05:00,DRY,2.50,10.85,12.5,777.00,182.5
2023-12-07,17:10:00,DRY,2.53,10.37,15.0,777.00,157.7